Welcome to the New NWS' Forecast!
Most changes are behind the scenes, but click here for differences you might notice.
Latest weather observations around

Whidbey Island, Naval Air Station (KNUW)

Using English Units (Switch to International System of Units)
Date/ Time (PST) Wind (mph) Vis. (mi) Weather Sky Cond. Temp (°F) Rel. Humidity Wind Chill (°F) Heat Index (°F) Pressure Precip. (in)
Air Dwpt 6 hour Altimeter (inHg) Sea level (inHg) 1 hr 3 hr 6 hr
Max Min
Nov 16 11:56 N 7 10 Mostly Cloudy SCT015 BKN020 BKN034 55 47     74%     30.29 30.29      
Nov 16 11:03 NW 5 10 Mostly Cloudy SCT015 BKN024 BKN034 54 48     80%     30.3        
Nov 16 10:56 NW 6 10 Cloudy SCT015 OVC030 54 48     80%     30.3 30.3      
Nov 16 09:56 N 8 10 Clear   55 48     77%     30.3 30.29     0
Nov 16 08:56 N 9 10 Cloudy FEW012 SCT029 BKN050 OVC130 53 48     83%     30.29 30.28      
Nov 16 07:56 N 7 9 Cloudy SCT009 BKN025 BKN060 OVC250 51 46     83%     30.28 30.27 0    
Nov 16 07:13 N 7 7 Cloudy SCT009 BKN016 OVC055 51 47     86%     30.27   0    
Nov 16 07:02 NNE 7 2 Light Rain and Fog/Mist BKN009 BKN016 OVC055 51 49     92%     30.27   0    
Nov 16 06:56 N 6 2 Cloudy FEW008 BKN016 OVC055 52 47     83%     30.27 30.27 0 0  
Nov 16 05:56 N 6 2 Light Rain SCT007 OVC012 53 48     83%     30.27 30.26 0    
Nov 16 04:56 NNW 7 2 Fog/Mist SCT004 BKN007 OVC020 53 49     86%     30.26 30.26 0    
Nov 16 03:56 NNW 3 2 Clear   53 49     86%     30.25 30.25     0
Nov 16 02:56 N 5 2 Fog/Mist SCT004 BKN007 OVC015 53 49     86%     30.24 30.24 0    
Nov 16 01:56 ESE 5 6 Light Rain and Fog/Mist BKN007 BKN012 OVC025 53 49     86%     30.23 30.23 0    
Nov 16 00:56 ESE 7 6 Fog/Mist BKN007 BKN013 OVC030 53 49     86%     30.23 30.22 0 0  
Nov 15 23:56 SSE 9 6 Light Rain and Fog/Mist SCT007 BKN013 OVC030 53 49     86%     30.21 30.21 0    
Nov 15 22:56 SE 11 6 Light Rain and Fog/Mist SCT007 BKN017 OVC030 53 49     86%     30.21 30.21 0    
Nov 15 21:56 SE 13 10 Light Rain SCT010 BKN025 OVC050 53 49     86%     30.22 30.21 0   0
Nov 15 20:56 SSE 15 10 Cloudy SCT025 BKN030 OVC050 55 48     77%     30.21 30.21      
Nov 15 19:56 SE 17 10 Cloudy SCT025 BKN035 OVC055 55 46     72%     30.2 30.2 0    
Nov 15 18:56   10 Cloudy SCT025 BKN035 OVC055 55 46     72%     30.21 30.21 0 0  
Nov 15 17:56 SE 17 10 Cloudy FEW025 BKN050 OVC080 54 46     74%     30.22 30.21      
Nov 15 16:56 SSE 13 10 Mostly Cloudy FEW025 BKN050 BKN080 BKN150 55 46     72%     30.24 30.24      
Nov 15 15:56   10 Mostly Cloudy FEW025 BKN050 BKN080 BKN150 55 46     72%     30.26 30.25     0
Nov 15 14:56 SSE 14 10 Cloudy FEW020 BKN055 BKN080 OVC150 55 47     74%     30.28 30.28 0    
Nov 15 13:56   10 Light Rain FEW020 BKN055 OVC070 55 47     74%     30.29 30.28 0    
Nov 15 12:56 SE 13 10 Light Rain SCT020 BKN055 OVC070 55 47     74%     30.31 30.3 0 0  
Nov 15 11:56 SE 11 10 Cloudy FEW012 SCT018 OVC060 55 47     74%     30.33 30.32 0    
Nov 15 11:44 SE 11 9 Cloudy FEW012 SCT018 OVC060 55 47     74%     30.34   0    
Nov 15 10:56 ESE 9 9 Cloudy FEW011 BKN015 OVC060 55 48     77%     30.35 30.34 0    
Nov 15 10:45 SE 11 9 Cloudy SCT011 SCT017 OVC060 55 48     77%     30.35   0    
Nov 15 10:05 SE 13 8 Light Rain FEW009 BKN015 OVC070 54 48     80%     30.35   0    
Nov 15 09:56 SE 9 8 Light Rain BKN014 OVC070 54 48     80%     30.35 30.35 0   0
Nov 15 09:09 SE 9 10 Cloudy FEW019 SCT026 BKN050 OVC140 53 48     83%     30.36        
Nov 15 08:56 ESE 10 8 Cloudy FEW009 BKN025 OVC080 53 48     83%     30.36 30.35 0    
Nov 15 07:56 SE 5 6 Fog/Mist SCT008 OVC014 51 49     92%     30.38 30.37      
Notice The following observation data may not be complete
Nov 15 07:04   6 Fog/Mist and Patchy Fog BKN008 OVC014          %              
Notice The following observation data may not be complete
Nov 15 06:56   7 Patchy Fog SCT006 BKN014 OVC035          %              
Nov 15 05:56 SE 6 6 Fog/Mist FEW013 BKN060 OVC120 51 47     86%     30.39 30.38      
Nov 15 04:56 ESE 7 8 Cloudy SCT010 BKN060 OVC120 50 46     86%     30.39 30.39      
Nov 15 03:56 ESE 7 6 Fog/Mist SCT010 SCT030 BKN060 50 47     89%     30.41 30.4      
Nov 15 02:56 SSE 3 6 Fog/Mist FEW007 SCT025 BKN065 51 47     86%     30.41 30.41      
Nov 15 01:56 ESE 6 8 Mostly Cloudy SCT010 SCT025 BKN045 52 47     83%     30.41 30.4      
Nov 15 00:56 ESE 7 8 Mostly Cloudy SCT010 SCT025 BKN040 52 48     86%     30.41 30.41      
Nov 14 23:56 ESE 9 7 Mostly Cloudy FEW010 BKN028 BKN040 51 47     86%     30.41 30.4      
Nov 14 22:56 E 6 9 Partly Cloudy FEW010 SCT035 SCT050 51 47     86%     30.41 30.41      
Nov 14 21:56 ESE 8 8 Mostly Cloudy SCT010 BKN033 BKN045 52 48     86%     30.4 30.4 0   0
Nov 14 20:56 S 3 8 Light Rain BKN024 BKN037 BKN065 53 47     80%     30.4 30.4 0    
Nov 14 19:56 SE 7 10 Mostly Cloudy BKN028 BKN055 BKN065 51 47     86%     30.39 30.38 0    
Nov 14 18:56 SE 6 10 Light Rain FEW008 BKN028 OVC065 53 48     83%     30.38 30.37 0 0  
Nov 14 17:56 ESE 9 9 Mostly Cloudy FEW009 SCT060 BKN075 BKN250 51 46     83%     30.37 30.37      
Nov 14 17:04 ESE 6 10 Mostly Cloudy SCT008 SCT036 BKN080 BKN250 52 47     83%     30.37        
Nov 14 16:56 ESE 8 10 Mostly Cloudy SCT010 SCT036 BKN080 BKN250 52 46     80%     30.37 30.36      
Nov 14 15:56 SSE 13 10 Mostly Cloudy FEW022 BKN032 BKN080 BKN250 54 47     77%     30.36 30.35      
Nov 14 14:56 SSE 11 10 Mostly Cloudy SCT025 BKN034 BKN080 BKN250 55 47     74%     30.35 30.35      
Nov 14 13:56 SE 9 10 Mostly Cloudy SCT025 BKN036 BKN060 BKN250 56 46     69%     30.35 30.34      
Nov 14 13:00 SE 13 10 Cloudy SCT027 BKN039 OVC060 55 46     72%     30.33        
Nov 14 12:56 SE 11 10 Cloudy BKN027 BKN035 BKN060 OVC220 55 46     72%     30.33 30.33      
Nov 14 11:56 SE 11 10 Cloudy BKN027 OVC033 54 45     72%     30.31 30.31      
Nov 14 10:56   10 Cloudy OVC025 54 45     72%       30.29      
Nov 14 09:56 SSE 16 8 Cloudy FEW012 BKN028 OVC050 53 44     71%     30.27 30.27 0   0
Nov 14 08:56   6 Light Rain and Fog/Mist BKN028 BKN045 OVC070 52 48     86%     30.23 30.23 0    
Nov 14 07:56   7 Cloudy FEW012 SCT040 BKN060 OVC130 53 42     66%     30.18 30.18 0    
Nov 14 06:56   9 Light Rain FEW012 SCT035 BKN080 OVC130 54 41     61%     30.16 30.16 0 0  
Nov 14 05:56   9 Cloudy FEW012 SCT040 OVC085 55 39     55%     30.17 30.17 0    
Nov 14 04:56   9 Cloudy SCT020 SCT050 OVC085 55 37     51%     30.18 30.18      
Nov 14 03:56 SE 14 10 Mostly Cloudy SCT025 SCT040 BKN080 56 36     47%     30.21 30.21     0
Nov 14 02:56 SE 15 10 Mostly Cloudy SCT025 SCT040 BKN075 55 35     47%     30.22 30.22 0    
Nov 14 01:56 SE 18 9 Cloudy SCT025 SCT045 OVC070 55 36     48%     30.23 30.23      
Nov 14 00:56   10 Cloudy SCT025 BKN075 OVC095 54 37     53%     30.25 30.24 0 0  
Nov 13 23:56   9 Light Rain SCT025 BKN065 OVC085 53 38     56%     30.24 30.24 0    
Nov 13 22:56 SE 22 10 Cloudy and Windy SCT025 BKN070 OVC095 54 38     55%     30.26 30.25 0    
Nov 13 21:56 ESE 16 10 Light Rain FEW012 SCT050 OVC085 51 42     71%     30.26 30.25 0   0
Nov 13 20:56   9 Light Rain SCT038 SCT060 OVC085 50 41     71%     30.28 30.28 0    
Nov 13 19:56 ESE 13 10 Light Rain SCT034 SCT050 OVC070 50 41     71%     30.28 30.27 0    
Nov 13 18:56 SE 6 10 Light Rain FEW033 BKN050 OVC080 53 40     61%     30.32 30.32 0 0  
Nov 13 17:56 ESE 9 10 Cloudy FEW035 SCT055 OVC075 55 38     52%     30.3 30.29      
Nov 13 16:56 Calm 10 Cloudy SCT034 BKN075 OVC090 54 39     57%     30.31 30.31      
Nov 13 15:56 ESE 6 10 Cloudy FEW045 BKN075 BKN090 OVC170 55 40     57%     30.33 30.32      
Nov 13 14:56 ESE 3 10 Cloudy SCT085 BKN120 BKN190 OVC250 55 40     57%     30.34 30.34      
Nov 13 13:56 SSE 8 10 Mostly Cloudy BKN095 BKN190 BKN250 56 38     51%     30.35 30.35      
Nov 13 12:56 SE 9 10 Cloudy FEW100 SCT160 BKN180 OVC250 53 38     56%     30.36 30.35      
Nov 13 11:56 SSE 9 10 Cloudy SCT120 BKN160 OVC240 53 37     54%     30.37 30.37      
Nov 13 10:56 S 7 10 Cloudy SCT120 BKN160 OVC250 53 33     46%     30.39 30.38      
Nov 13 09:56 SSE 8 10 Cloudy SCT120 SCT180 OVC250 54 32     43%     30.39 30.38      
Nov 13 08:56 ESE 7 10 Cloudy SCT120 BKN180 OVC250 50 35     56%     30.38 30.38      
Nov 13 07:56 ESE 13 10 Partly Cloudy SCT120 SCT250 41 36     82% 34   30.37 30.37      
Nov 13 06:56 ESE 9 10 Mostly Cloudy FEW120 SCT150 BKN250 42 36     79% 37   30.38 30.37      
Nov 13 05:56 ESE 11 10 Mostly Cloudy FEW140 BKN250 41 35     79% 34   30.37 30.37      
Nov 13 04:56 ESE 11 10 Mostly Cloudy BKN250 42 37     82% 36   30.37 30.36      
Nov 13 03:56 E 11 10 Mostly Cloudy BKN250 44 36     73% 38   30.36 30.36      
Nov 13 02:56 E 7 10 Mostly Cloudy BKN250 43 36     76% 39   30.37 30.37      
Nov 13 01:56 ESE 9 10 Mostly Cloudy BKN250 42 37     82% 37   30.38 30.37      
Nov 13 00:56 ESE 10 10 Mostly Cloudy BKN250 44 36     73% 39   30.38 30.37      
Nov 12 23:56 ESE 10 10 Mostly Cloudy BKN250 43 37     79% 37   30.39 30.39      
Nov 12 22:56 ESE 8 10 Clear CLR 45 38     76% 41   30.4 30.4      
Nov 12 21:56 E 10 10 Clear CLR 43 37     79% 37   30.41 30.4      
Nov 12 20:56 ESE 10 10 Clear CLR 45 38     76% 40   30.4 30.4      
Nov 12 19:56 ESE 9 10 Clear CLR 44 37     76% 39   30.38 30.38      
Nov 12 18:56 ESE 5 10 Clear CLR 47 36     65% 45   30.4 30.4      
Nov 12 17:56 E 7 10 Clear CLR 47 36     65% 44   30.4 30.39      
Nov 12 16:56 ESE 5 10 Clear CLR 48 35     61% 46   30.4 30.4      
Nov 12 15:56 Calm 10 Clear CLR 52 34     50%     30.4 30.4      
Nov 12 14:56 3 10 Clear CLR 56 35     45%     30.41 30.41      
Nov 12 13:56 E 9 10 Clear CLR 57 33     40%     30.41 30.41      
Nov 12 12:56 ENE 5 10 Clear CLR 55 37     51%     30.44 30.44      
Nov 12 11:56 ESE 9 10 Clear CLR 52 37     57%     30.45 30.45      
Nov 12 10:56 NE 5 10 Clear CLR 53 36     52%     30.47 30.46      
Nov 12 09:56 E 9 10 Clear CLR 49 36     61% 45   30.47 30.46      
Nov 12 08:56 E 9 10 Clear CLR 47 35     63% 43   30.48 30.47      
Nov 12 07:56 ESE 5 10 Clear CLR 42 33     70% 39   30.49 30.48      
Nov 12 06:56 NNE 3 10 Clear CLR 40 33     76% 38   30.48 30.48      
Nov 12 05:56 Calm 10 Clear CLR 44 33     65%     30.48 30.47      
Nov 12 04:56 Calm 10 Clear CLR 43 33     68%     30.48 30.47      
Nov 12 03:56 E 10 10 Clear CLR 43 33     68% 37   30.48 30.48      
Nov 12 02:56 ENE 9 10 Clear CLR 39 33     79% 33   30.49 30.48      
Nov 12 01:56 ESE 6 10 Clear CLR 40 34     79% 36   30.51 30.5      
Nov 12 00:56 SE 9 10 Clear CLR 40 34     79% 34   30.5 30.49      
Nov 11 23:56 SE 9 10 Clear CLR 36 32     85% 29   30.51 30.51      
Nov 11 22:56 SE 5 7 Patchy Fog CLR 39 34     82% 36   30.52 30.52      
Nov 11 21:56 Calm 7 Patchy Fog FEW002 FEW200 41 37     86%     30.52 30.52      
Nov 11 20:56 SE 6 8 Patchy Fog SCT160 SCT220 36 32     85% 31   30.52 30.51      
Nov 11 19:56 SE 3 7 Mostly Cloudy SCT160 BKN220 38 33     82% 36   30.51 30.5      
Nov 11 18:56 SE 6 10 Mostly Cloudy SCT160 BKN220 39 35     86% 35   30.51 30.5      
Nov 11 17:56 S 3 10 Mostly Cloudy SCT160 BKN220 42 36     79% 40   30.5 30.5      
Nov 11 16:56 Calm 10 Mostly Cloudy SCT160 BKN220 45 37     74%     30.49 30.49      
Nov 11 15:56 N 6 10 Mostly Cloudy BKN160 BKN220 50 37     61%     30.51 30.5      
Nov 11 14:56 NNW 5 10 Mostly Cloudy BKN160 BKN220 49 38     66% 47   30.5 30.5      
Nov 11 13:56 NNW 6 10 Mostly Cloudy BKN180 BKN240 49 37     63% 46   30.51 30.51      
Nov 11 12:56 WNW 3 10 Mostly Cloudy BKN180 BKN240 49 38     66% 48   30.52 30.51      
Nov 11 11:56 W 3 10 Mostly Cloudy FEW020 BKN220 48 37     66% 47   30.53 30.52      
Nov 11 10:56 NW 5 10 Mostly Cloudy FEW005 FEW018 BKN220 47 38     71% 45   30.53 30.53      
Nov 11 09:56 ENE 5 10 Mostly Cloudy FEW003 BKN200 47 37     68% 45   30.53 30.53      
Nov 11 08:56 NNE 5 5 Haze FEW003 BKN200 43 38     82% 40   30.53 30.52      
Nov 11 07:56 NNE 3 4 Fog/Mist and Patchy Fog SCT003 BKN200 39 36     89% 37   30.53 30.52      
Nov 11 06:56 E 5 0.12 Fog VV001 38 34     85% 34   30.51 30.5      
Nov 11 05:56 ESE 5 1.5 Fog/Mist and Patchy Fog VV002 38 35     89% 34   30.51 30.51      
Nov 11 04:56 SE 3 8 Patchy Fog SCT003 37 33     85% 35   30.5 30.5      
Nov 11 03:56 ESE 5 0.25 Fog VV003 37 34     89% 33   30.49 30.49     0
Nov 11 03:15 ESE 7 0.25 Fog VV003 38 34     85% 33   30.5        
Nov 11 02:56 ESE 6 8 Patchy Fog SCT003 SCT250 37 34     89% 32   30.49 30.49      
Nov 11 02:29 SE 7 8 Patchy Fog FEW003 SCT020 SCT250 37 33     85% 32   30.5        
Nov 11 01:56 SE 3 8 Patchy Fog FEW003 BKN020 BKN250 39 35     86% 37   30.5 30.49      
Nov 11 00:56 ESE 5 8 Patchy Fog BKN016 BKN250 40 37     89% 37   30.51 30.51   0  
Nov 10 23:56 ESE 6 8 Patchy Fog FEW002 BKN016 BKN250 39 36     89% 35   30.51 30.51      
Nov 10 23:47 ESE 7 8 Patchy Fog FEW002 BKN016 BKN250 39 36     89% 34   30.51        
Nov 10 22:56 ESE 6 8 Patchy Fog SCT002 SCT250 38 35     89% 33   30.51 30.5      
Nov 10 21:56 SE 3 8 Fog FEW002 35 32     88% 32   30.5 30.5      
Nov 10 20:56 SSE 5 8 Fog CLR 40 36     86% 37   30.49 30.49      
Nov 10 19:56 Calm 10 Mostly Clear FEW180 39 35     86%     30.48 30.48      
Nov 10 18:56 Calm 10 Partly Cloudy SCT180 42 37     82%     30.46 30.46      
Nov 10 17:56 NNW 9 10 Partly Cloudy FEW012 SCT180 48 39     71% 44   30.47 30.46      
Nov 10 16:56 N 6 10 Partly Cloudy FEW012 SCT180 47 38     71% 44   30.46 30.45      
Nov 10 15:56 N 7 10 Partly Cloudy FEW012 FEW025 SCT180 51 36     56%     30.45 30.45      
Nov 10 14:56 N 8 10 Partly Cloudy FEW012 SCT025 SCT180 53 37     54%     30.46 30.45      
Nov 10 13:56 N 7 10 Partly Cloudy SCT012 SCT180 53 39     59%     30.46 30.46      
Nov 10 12:56 NNW 9 10 Partly Cloudy SCT012 SCT180 52 41     66%     30.48 30.48      
Nov 10 11:56 NW 7 10 Partly Cloudy SCT012 51 41     68%     30.48 30.48      
Nov 10 10:56 NW 7 10 Partly Cloudy SCT011 SCT014 50 41     71%     30.47 30.47      
Nov 10 10:40 6 10 Partly Cloudy FEW011 SCT014 SCT024 50 42     74%     30.47        
Nov 10 09:56 Calm 10 Mostly Cloudy BKN011 BKN024 BKN048 49 42     77%     30.47 30.47     0
Nov 10 08:56 Calm 10 Partly Cloudy FEW006 FEW024 SCT048 47 42     83%     30.45 30.45      
Nov 10 08:27 Calm 10 Partly Cloudy FEW006 SCT024 SCT048 46 41     82%     30.45        
Nov 10 07:56 Calm 9 Fog FEW005 BKN023 BKN050 44 40     85%     30.45 30.44      
Nov 10 07:38 Calm 8 Shallow Fog FEW005 BKN024 BKN050 44 40     85%     30.44        
Nov 10 06:56 Calm 8 Mostly Cloudy SCT005 SCT020 BKN049 44 40     85%     30.42 30.42   0  
Nov 10 05:56 Calm 6 Fog/Mist BKN006 BKN021 OVC050 44 40     85%     30.4 30.4      
Nov 10 04:56 E 7 8 Cloudy FEW008 BKN021 OVC049 45 41     86% 41   30.39 30.39 0    
Nov 10 04:49 E 7 8 Cloudy FEW008 BKN021 OVC049 45 41     86% 41   30.39   0    
Nov 10 03:56 E 7 5 Light Rain and Fog/Mist SCT007 BKN012 OVC020 45 41     86% 41   30.39 30.38 0   0
Nov 10 03:42 E 8 5 Light Rain and Fog/Mist SCT007 BKN012 OVC020 45 41     86% 41   30.38   0    
Nov 10 02:56 E 9 6 Haze SCT008 BKN016 OVC025 46 41     82% 41   30.38 30.38      
Nov 10 01:56 ESE 7 7 Cloudy FEW010 BKN016 OVC022 46 41     82% 42   30.38 30.37      
Nov 10 00:56 ESE 6 9 Cloudy OVC016 46 41     82% 43   30.37 30.36   0  
Nov 10 00:07 ESE 7 9 Cloudy SCT016 BKN027 OVC060 45 41     86% 41   30.37        
Nov 09 23:56 ESE 7 8 Cloudy SCT016 BKN035 OVC060 45 41     86% 41   30.36 30.36      
Nov 09 23:37 ESE 7 8 Cloudy SCT018 BKN033 OVC060 45 41     86% 41   30.36        
Nov 09 22:56 ESE 8 9 Cloudy BKN017 BKN028 OVC060 45 40     82% 41   30.36 30.36 0    
Nov 09 22:29 ESE 7 7 Cloudy SCT028 BKN047 OVC060 45 41     86% 41   30.36   0    
Nov 09 21:56 ESE 7 8 Light Rain BKN027 BKN033 OVC045 45 41     86% 41   30.36 30.36 0   0
Nov 09 20:56 ESE 7 10 Cloudy SCT020 BKN025 OVC035 45 41     86% 41   30.36 30.35      
Nov 09 19:56 ESE 7 10 Cloudy BKN020 BKN030 OVC036 46 41     82% 42   30.35 30.35      
Nov 09 18:56 SE 6 10 Cloudy OVC022 45 41     86% 42   30.34 30.34      
Nov 09 17:56 SE 6 10 Cloudy SCT010 BKN018 OVC025 45 40     82% 42   30.34 30.33      
Nov 09 16:56 E 5 10 Cloudy SCT010 BKN015 OVC025 45 40     82% 43   30.33 30.33      
Nov 09 15:56 SE 6 10 Cloudy SCT010 BKN022 OVC035 46 40     79% 43   30.33 30.33     0
Nov 09 14:56 SE 5 10 Cloudy SCT010 BKN022 OVC035 46 41     82% 44   30.33 30.32      
Nov 09 13:56 E 5 10 Cloudy FEW010 OVC022 46 41     82% 44   30.33 30.32      
Nov 09 12:56 SSE 3 8 Cloudy OVC022 45 41     86% 44   30.33 30.32 0 0  
Nov 09 12:03 Calm 10 Cloudy BKN024 OVC030 44 40     85%     30.34        
Nov 09 11:56 SSE 5 10 Cloudy SCT024 OVC032 44 40     85% 41   30.33 30.33 0    
Nov 09 10:56 E 5 5 Light Rain and Fog/Mist BKN028 OVC036 44 40     85% 41   30.33 30.33 0    
Nov 09 09:56 ESE 6 5 Rain and Fog/Mist SCT032 OVC042 43 40     89% 39   30.35 30.35 0   0
Nov 09 08:56 SE 6 6 Light Rain and Fog/Mist OVC050 43 40     89% 39   30.35 30.35 0    
Nov 09 07:56 E 3 6 Light Rain and Fog/Mist SCT030 OVC055 43 39     86% 41   30.36 30.35 0    
Nov 09 06:56 N 5 10 Cloudy SCT030 OVC060 43 37     79% 40   30.38   0 0  
Nov 09 05:56 ESE 7 10 Light Rain FEW030 BKN060 OVC080 43 37     79% 39   30.36 30.36 0    
Nov 09 04:56 Calm 10 Cloudy SCT050 BKN065 BKN080 OVC140 42 37     82%     30.39 30.39      
Nov 09 03:56 SSE 3 10 Cloudy SCT065 SCT110 OVC150 39 35     86% 37   30.41 30.4      
Nov 09 02:56 E 3 10 Cloudy BKN150 BKN180 OVC250 39 35     86% 37   30.44 30.44      
Nov 09 01:56 ESE 9 10 Mostly Cloudy BKN170 BKN250 39 35     86% 33   30.46 30.45      
Nov 09 00:56 E 5 10 Partly Cloudy SCT250 38 33     82% 34   30.48 30.47      
Nov 08 23:56 SE 7 10 Fog SCT250 36 32     85% 30   30.49 30.49      
Nov 08 22:56 ESE 3 8 Fog SCT200 SCT250 37 32     82% 35   30.52 30.52      
Nov 08 21:56 SE 3 10 Partly Cloudy SCT210 SCT250 38 34     85% 36   30.53 30.53      
Nov 08 20:56 ESE 6 10 Partly Cloudy SCT250 38 33     82% 33   30.54 30.53      
Nov 08 19:56 SE 5 10 Mostly Cloudy FEW025 BKN250 38 33     82% 34   30.55 30.55      
Nov 08 18:56 ESE 3 10 Mostly Cloudy FEW025 BKN250 40 34     79% 38   30.55 30.55      
Nov 08 17:56 ESE 6 10 Mostly Cloudy FEW025 BKN250 41 34     76% 37   30.57 30.57      
Nov 08 16:56 Calm 10 Mostly Cloudy FEW025 BKN250 45 36     71%     30.58 30.57      
Nov 08 15:56 NW 5 10 Mostly Cloudy FEW025 BKN250 49 36     61% 47   30.58 30.58      
Nov 08 14:56 NW 5 10 Mostly Cloudy FEW025 BKN250 50 36     58%     30.59 30.58      
Nov 08 13:56 NW 6 10 Partly Cloudy FEW025 SCT250 50 36     58%     30.59 30.58      
Nov 08 12:56 NW 5 10 Partly Cloudy FEW025 SCT250 50 35     56%     30.6 30.6      
Nov 08 11:56 ESE 3 10 Partly Cloudy FEW025 SCT250 50 35     56%     30.61 30.61      
Nov 08 10:56 ESE 5 10 Partly Cloudy FEW025 SCT250 49 36     61% 47   30.63 30.63      
Nov 08 09:56 ESE 3 10 Mostly Clear FEW025 FEW250 47 36     65% 46   30.63 30.62      
Nov 08 08:56 ESE 5 10 Mostly Clear FEW023 FEW250 43 35     73% 40   30.63 30.63      
Notice The following observation data may not be complete
Nov 08 07:56   10 Patchy Fog FEW020 FEW250          %              
Nov 08 06:56 Calm 10 Patchy Fog FEW020 FEW250 36 30     79%     30.61 30.61      
Nov 08 05:56 Calm 10 Patchy Fog FEW020 FEW250 37 32     82%     30.61 30.6      
Nov 08 04:56 ESE 3 10 Mostly Clear FEW030 FEW200 36 31     82% 33   30.61 30.6      
Nov 08 03:56 Calm 10 Mostly Clear FEW030 FEW100 38 32     79%     30.61 30.6      
Nov 08 02:56 Calm 10 Mostly Clear FEW030 FEW100 40 33     76%     30.6 30.6      
Nov 08 01:56 ESE 6 10 Mostly Clear FEW030 39 33     79% 35   30.59 30.59      
Nov 08 00:56 ESE 6 10 Clear CLR 40 33     76% 36   30.59 30.58      
Nov 07 23:56 E 8 10 Clear CLR 39 34     82% 33   30.57 30.57      
Nov 07 22:56 ESE 3 10 Clear CLR 40 35     83% 38   30.57 30.57      
Nov 07 21:56 SSE 3 10 Mostly Clear FEW008 FEW250 39 35     86% 37   30.56 30.55      
Nov 07 20:56 Calm 8 Patchy Fog SCT008 41 36     82%     30.54 30.54      
Nov 07 19:56 S 3 10 Partly Cloudy SCT200 41 36     82% 39   30.53 30.52      
Nov 07 18:56 ESE 5 10 Mostly Clear FEW200 42 36     79% 39   30.51 30.51      
Nov 07 17:56 E 3 10 Mostly Clear FEW200 45 37     74% 44   30.5 30.5      
Nov 07 16:56 N 3 10 Mostly Clear FEW200 50 40     68%     30.5 30.49      
Nov 07 15:56 NNW 7 10 Mostly Clear FEW200 52 39     61%     30.5 30.49      
Nov 07 14:56 NNW 8 10 Mostly Clear FEW200 54 37     53%     30.49 30.48      
Nov 07 13:56 N 10 10 Mostly Clear FEW200 55 36     48%     30.48 30.48      
Nov 07 12:56   10 Mostly Clear FEW025 FEW250 55 37     51%     30.48 30.48      
Nov 07 11:56 NNW 8 10 Mostly Clear FEW025 FEW250 53 36     52%     30.48 30.47      
Nov 07 10:56 NNW 8 10 Mostly Clear FEW025 FEW250 52 38     59%     30.47 30.47      
Nov 07 09:56 NNW 5 10 Partly Cloudy SCT025 50 40     68%     30.46 30.45      
Nov 07 09:23 Calm 10 Partly Cloudy SCT022 50 41     71%     30.45        
Nov 07 08:56 Calm 10 Mostly Cloudy FEW012 BKN022 49 41     74%     30.45 30.45      
Nov 07 08:33 NNE 3 10 Patchy Fog BKN023 48 41     77% 47   30.44        
Nov 07 07:56 ENE 3 10 Patchy Fog FEW012 SCT020 SCT250 44 39     82% 43   30.42 30.42      
May 15 05:56 SW 10 1 Fog/Mist SKC BKN005 OVC120 53 50     89%     29.95        
May 15 03:40 SW 6 1.5 Fog/Mist SCT004 SCT120 53 50     89%     29.93        
May 14 10:56 W 7 10 Partly Cloudy SCT250 64 53     67%     30 30      
May 13 15:56 W 5 10 Partly Cloudy SCT250 70 54     57%       29.96      
May 13 10:56 W 9 10 Mostly Clear FEW250 65 53     65%     30.02 30.01      
May 13 09:56 WNW 5 10 Clear CLR 63 53     70%     30.02 30.02      
May 12 16:56 WSW 7 10 Mostly Clear FEW250 64 51     63%       30.06      
May 11 19:56 W 3 10 Mostly Clear FEW035 56 50     80%     30.23 30.23      
May 11 06:56   10 Mostly Cloudy BKN026 BKN200 53 47     80%     30.28 30.28 0    
Jun 12 05:56 SW 10 8 Cloudy BKN009 OVC055 55 50     83%     30.03        
Jun 11 19:56 WSW 7 10 Partly Cloudy FEW055 FEW120 SCT170 SCT250 59 47     64%     30.03 30.03      
Jun 11 18:56 W 9 10 Partly Cloudy FEW050 FEW110 SCT210 SCT250 59 48     67%     30.02 30.02      
Jun 10 18:56 WSW 3 10 Mostly Cloudy FEW050 SCT080 SCT120 BKN240 57 47     69%     29.92        
Jun 10 16:56 WSW 11 10 Mostly Cloudy FEW030 SCT045 SCT070 SCT210 BKN250 58 47     67%     29.91        
Jun 10 14:56 W 9 10 Mostly Cloudy FEW026 SCT042 SCT110 BKN220 BKN250 59 47     64%     29.91 29.91      
Jun 09 23:56 SE 7 10 Mostly Cloudy FEW032 BKN070 BKN090 54 45     72%     29.88 29.88      
Jun 08 18:56 ESE 5 10 Light Rain SCT032 BKN045 BKN060 OVC140 56 49     77%       29.94 0    
Jun 07 21:56 3 10 Cloudy FEW050 SCT090 BKN110 OVC220 60 42     51%              
Jun 07 11:56 WNW 7 10 Mostly Cloudy FEW050 SCT120 BKN190 63 47     56%     29.79 29.79      
Jun 07 05:56 Calm 10 Cloudy FEW120 SCT160 OVC250 52 43     71%     29.9